Time,TemperatureF,DewpointF,PressureIn,WindDirection,WindDirectionDegrees,WindSpeedMPH,WindSpeedGustMPH,Humidity,HourlyPrecipIn,Conditions,Clouds,dailyrainin,SoftwareType,DateUTC
2013-11-15 00:01:00,49.1,43.0,29.86,NE,51,0.0,-999.0,78,-99.99,,,0.00,weatherlink.com 1.10,2013-11-15 08:01:00,
2013-11-15 00:16:00,48.6,42.0,29.86,NE,51,0.0,-999.0,77,-99.99,,,0.00,weatherlink.com 1.10,2013-11-15 08:16:00,
2013-11-15 00:31:00,48.2,42.0,29.86,NE,51,0.0,-999.0,78,-99.99,,,0.00,weatherlink.com 1.10,2013-11-15 08:31:00,
2013-11-15 00:46:00,48.0,41.0,29.86,NE,51,0.0,-999.0,78,-99.99,,,0.00,weatherlink.com 1.10,2013-11-15 08:46:00,
2013-11-15 01:01:00,48.5,42.0,29.86,ESE,117,0.0,-999.0,77,-99.99,,,0.00,weatherlink.com 1.10,2013-11-15 09:01:00,
2013-11-15 01:16:00,48.3,41.0,29.86,ESE,117,0.0,-999.0,77,-99.99,,,0.00,weatherlink.com 1.10,2013-11-15 09:16:00,
2013-11-15 01:31:00,48.0,41.0,29.85,ESE,117,0.0,-999.0,78,-99.99,,,0.00,weatherlink.com 1.10,2013-11-15 09:31:00,
2013-11-15 01:46:00,47.4,41.0,29.84,ESE,117,0.0,-999.0,79,-99.99,,,0.00,weatherlink.com 1.10,2013-11-15 09:46:00,
2013-11-15 02:01:00,47.1,41.0,29.84,ESE,116,0.0,-999.0,80,-99.99,,,0.00,weatherlink.com 1.10,2013-11-15 10:01:00,
2013-11-15 02:16:00,47.0,41.0,29.84,ESE,116,0.0,-999.0,81,-99.99,,,0.00,weatherlink.com 1.10,2013-11-15 10:16:00,
2013-11-15 02:31:00,46.5,41.0,29.84,ESE,116,0.0,-999.0,81,-99.99,,,0.00,weatherlink.com 1.10,2013-11-15 10:31:00,
2013-11-15 02:46:00,46.5,41.0,29.84,ESE,116,0.0,-999.0,81,-99.99,,,0.00,weatherlink.com 1.10,2013-11-15 10:46:00,
2013-11-15 03:01:00,46.5,41.0,29.83,ESE,116,0.0,-999.0,80,-99.99,,,0.00,weatherlink.com 1.10,2013-11-15 11:01:00,
2013-11-15 03:16:00,46.5,41.0,29.83,ESE,116,0.0,-999.0,80,-99.99,,,0.00,weatherlink.com 1.10,2013-11-15 11:16:00,
2013-11-15 03:31:00,46.2,40.0,29.83,ESE,116,0.0,-999.0,80,-99.99,,,0.00,weatherlink.com 1.10,2013-11-15 11:31:00,
2013-11-15 03:46:00,46.1,41.0,29.83,ESE,116,0.0,-999.0,81,-99.99,,,0.00,weatherlink.com 1.10,2013-11-15 11:46:00,
2013-11-15 04:01:00,45.8,40.0,29.83,ESE,116,0.0,-999.0,81,-99.99,,,0.00,weatherlink.com 1.10,2013-11-15 12:01:00,
2013-11-15 04:16:00,45.8,41.0,29.82,ESE,116,0.0,-999.0,82,-99.99,,,0.00,weatherlink.com 1.10,2013-11-15 12:16:00,
2013-11-15 04:31:00,45.5,40.0,29.82,ESE,116,0.0,-999.0,82,-99.99,,,0.00,weatherlink.com 1.10,2013-11-15 12:31:00,
2013-11-15 04:46:00,45.5,40.0,29.82,ESE,116,0.0,-999.0,82,-99.99,,,0.00,weatherlink.com 1.10,2013-11-15 12:46:00,
2013-11-15 05:01:00,45.1,40.0,29.82,ESE,116,0.0,-999.0,83,-99.99,,,0.00,weatherlink.com 1.10,2013-11-15 13:01:00,
2013-11-15 05:16:00,44.8,41.0,29.81,ESE,116,0.0,-999.0,85,-99.99,,,0.00,weatherlink.com 1.10,2013-11-15 13:16:00,
2013-11-15 05:31:00,44.8,41.0,29.81,ESE,116,0.0,-999.0,85,-99.99,,,0.00,weatherlink.com 1.10,2013-11-15 13:31:00,
2013-11-15 05:46:00,44.8,41.0,29.81,ESE,116,0.0,-999.0,85,-99.99,,,0.00,weatherlink.com 1.10,2013-11-15 13:46:00,
2013-11-15 06:01:00,44.5,40.0,29.82,ESE,116,0.0,-999.0,85,-99.99,,,0.00,weatherlink.com 1.10,2013-11-15 14:01:00,
2013-11-15 06:16:00,44.6,40.0,29.82,ESE,116,0.0,-999.0,85,-99.99,,,0.00,weatherlink.com 1.10,2013-11-15 14:16:00,
2013-11-15 06:31:00,44.6,40.0,29.82,ESE,116,0.0,-999.0,85,-99.99,,,0.00,weatherlink.com 1.10,2013-11-15 14:31:00,
2013-11-15 06:46:00,44.2,40.0,29.82,ESE,116,0.0,-999.0,85,-99.99,,,0.00,weatherlink.com 1.10,2013-11-15 14:46:00,
2013-11-15 07:01:00,43.8,40.0,29.83,ESE,116,0.0,-999.0,85,-99.99,,,0.00,weatherlink.com 1.10,2013-11-15 15:01:00,
2013-11-15 07:16:00,44.1,41.0,29.83,ESE,116,0.0,-999.0,87,-99.99,,,0.00,weatherlink.com 1.10,2013-11-15 15:16:00,
2013-11-15 07:31:00,44.3,41.0,29.83,ESE,116,0.0,-999.0,87,-99.99,,,0.00,weatherlink.com 1.10,2013-11-15 15:31:00,
2013-11-15 07:46:00,44.8,41.0,29.83,ESE,116,0.0,-999.0,87,-99.99,,,0.00,weatherlink.com 1.10,2013-11-15 15:46:00,
2013-11-15 08:16:00,47.3,42.0,29.83,ESE,114,0.0,-999.0,83,-99.99,,,0.00,weatherlink.com 1.10,2013-11-15 16:16:00,
2013-11-15 08:31:00,49.4,42.0,29.82,ESE,114,0.0,-999.0,77,-99.99,,,0.00,weatherlink.com 1.10,2013-11-15 16:31:00,
2013-11-15 08:46:00,51.6,42.0,29.82,WSW,254,0.0,-999.0,69,-99.99,,,0.00,weatherlink.com 1.10,2013-11-15 16:46:00,
2013-11-15 09:01:00,54.4,41.0,29.82,West,271,0.0,-999.0,62,-99.99,,,0.00,weatherlink.com 1.10,2013-11-15 17:01:00,
2013-11-15 09:16:00,56.2,41.0,29.82,West,263,0.0,-999.0,58,-99.99,,,0.00,weatherlink.com 1.10,2013-11-15 17:16:00,
2013-11-15 09:31:00,57.2,40.0,29.83,West,277,0.0,-999.0,54,-99.99,,,0.00,weatherlink.com 1.10,2013-11-15 17:31:00,
2013-11-15 09:47:00,59.2,41.0,29.82,West,269,0.0,-999.0,52,-99.99,,,0.00,weatherlink.com 1.10,2013-11-15 17:47:00,
2013-11-15 10:02:00,60.4,41.0,29.82,West,273,0.0,-999.0,49,-99.99,,,0.00,weatherlink.com 1.10,2013-11-15 18:02:00,
2013-11-15 10:17:00,61.2,41.0,29.82,WNW,296,0.0,-999.0,48,-99.99,,,0.00,weatherlink.com 1.10,2013-11-15 18:17:00,
2013-11-15 10:32:00,62.4,41.0,29.82,WNW,296,0.0,-999.0,45,-99.99,,,0.00,weatherlink.com 1.10,2013-11-15 18:32:00,
2013-11-15 10:47:00,62.6,41.0,29.81,WNW,283,1.0,-999.0,45,-99.99,,,0.00,weatherlink.com 1.10,2013-11-15 18:47:00,
2013-11-15 11:02:00,63.4,43.0,29.81,SW,222,0.0,-999.0,47,-99.99,,,0.00,weatherlink.com 1.10,2013-11-15 19:02:00,
2013-11-15 11:32:00,63.5,42.0,29.80,SSW,208,0.0,-999.0,46,-99.99,,,0.00,weatherlink.com 1.10,2013-11-15 19:32:00,
2013-11-15 11:47:00,63.9,41.0,29.79,SSW,211,0.0,-999.0,44,-99.99,,,0.00,weatherlink.com 1.10,2013-11-15 19:47:00,
2013-11-15 12:03:00,64.2,42.0,29.78,WSW,238,1.0,-999.0,45,-99.99,,,0.00,weatherlink.com 1.10,2013-11-15 20:03:00,
2013-11-15 12:17:00,64.8,41.0,29.77,WSW,238,0.0,-999.0,42,-99.99,,,0.00,weatherlink.com 1.10,2013-11-15 20:17:00,
2013-11-15 12:32:00,65.5,43.0,29.76,SW,215,0.0,-999.0,45,-99.99,,,0.00,weatherlink.com 1.10,2013-11-15 20:32:00,
2013-11-15 12:47:00,65.0,43.0,29.76,WSW,256,0.0,-999.0,45,-99.99,,,0.00,weatherlink.com 1.10,2013-11-15 20:47:00,
2013-11-15 13:02:00,64.7,43.0,29.76,SSW,200,1.0,-999.0,46,-99.99,,,0.00,weatherlink.com 1.10,2013-11-15 21:02:00,
2013-11-15 13:17:00,64.5,43.0,29.76,NW,307,0.0,-999.0,45,-99.99,,,0.00,weatherlink.com 1.10,2013-11-15 21:17:00,
2013-11-15 13:32:00,65.0,40.0,29.75,SE,128,0.0,-999.0,40,-99.99,,,0.00,weatherlink.com 1.10,2013-11-15 21:32:00,
2013-11-15 13:47:00,65.5,40.0,29.75,WNW,288,0.0,-999.0,39,-99.99,,,0.00,weatherlink.com 1.10,2013-11-15 21:47:00,
2013-11-15 14:02:00,65.5,42.0,29.75,SW,214,0.0,-999.0,42,-99.99,,,0.00,weatherlink.com 1.10,2013-11-15 22:02:00,
2013-11-15 14:17:00,65.2,41.0,29.75,SW,215,0.0,-999.0,42,-99.99,,,0.00,weatherlink.com 1.10,2013-11-15 22:17:00,
2013-11-15 14:32:00,64.5,40.0,29.75,SSE,150,0.0,-999.0,40,-99.99,,,0.00,weatherlink.com 1.10,2013-11-15 22:32:00,
2013-11-15 14:47:00,64.0,39.0,29.74,SW,225,0.0,-999.0,40,-99.99,,,0.00,weatherlink.com 1.10,2013-11-15 22:47:00,
2013-11-15 15:02:00,63.7,39.0,29.74,South,170,0.0,-999.0,41,-99.99,,,0.00,weatherlink.com 1.10,2013-11-15 23:02:00,
2013-11-15 15:17:00,63.5,38.0,29.74,SE,137,2.0,-999.0,39,-99.99,,,0.00,weatherlink.com 1.10,2013-11-15 23:17:00,
2013-11-15 15:32:00,63.1,39.0,29.74,SSW,200,2.0,-999.0,41,-99.99,,,0.00,weatherlink.com 1.10,2013-11-15 23:32:00,
2013-11-15 15:47:00,62.0,39.0,29.73,South,185,0.0,-999.0,43,-99.99,,,0.00,weatherlink.com 1.10,2013-11-15 23:47:00,
2013-11-15 16:02:00,61.8,41.0,29.73,ENE,63,0.0,-999.0,47,-99.99,,,0.00,weatherlink.com 1.10,2013-11-16 00:02:00,
2013-11-15 16:17:00,59.6,41.0,29.73,SSE,165,0.0,-999.0,50,-99.99,,,0.00,weatherlink.com 1.10,2013-11-16 00:17:00,
2013-11-15 16:32:00,58.7,40.0,29.73,SE,136,0.0,-999.0,50,-99.99,,,0.00,weatherlink.com 1.10,2013-11-16 00:32:00,
2013-11-15 16:47:00,58.1,39.0,29.73,SE,128,0.0,-999.0,50,-99.99,,,0.00,weatherlink.com 1.10,2013-11-16 00:47:00,
2013-11-15 17:02:00,57.3,40.0,29.73,SE,128,0.0,-999.0,53,-99.99,,,0.00,weatherlink.com 1.10,2013-11-16 01:02:00,
2013-11-15 17:17:00,56.2,40.0,29.73,SE,128,0.0,-999.0,56,-99.99,,,0.00,weatherlink.com 1.10,2013-11-16 01:17:00,
2013-11-15 17:32:00,55.0,40.0,29.74,SE,128,0.0,-999.0,57,-99.99,,,0.00,weatherlink.com 1.10,2013-11-16 01:32:00,
2013-11-15 17:47:00,53.6,40.0,29.74,SE,128,0.0,-999.0,61,-99.99,,,0.00,weatherlink.com 1.10,2013-11-16 01:47:00,
2013-11-15 18:02:00,52.8,40.0,29.73,SE,128,0.0,-999.0,62,-99.99,,,0.00,weatherlink.com 1.10,2013-11-16 02:02:00,
2013-11-15 18:17:00,52.0,40.0,29.73,SE,128,0.0,-999.0,64,-99.99,,,0.00,weatherlink.com 1.10,2013-11-16 02:17:00,
2013-11-15 18:32:00,51.3,40.0,29.74,SE,128,0.0,-999.0,65,-99.99,,,0.00,weatherlink.com 1.10,2013-11-16 02:32:00,
2013-11-15 18:47:00,50.7,40.0,29.75,SE,128,0.0,-999.0,67,-99.99,,,0.00,weatherlink.com 1.10,2013-11-16 02:47:00,
2013-11-15 19:02:00,50.4,40.0,29.75,SE,128,0.0,-999.0,68,-99.99,,,0.00,weatherlink.com 1.10,2013-11-16 03:02:00,
2013-11-15 19:18:00,50.1,40.0,29.75,SE,128,0.0,-999.0,69,-99.99,,,0.00,weatherlink.com 1.10,2013-11-16 03:18:00,
2013-11-15 19:35:00,49.9,41.0,29.76,SE,128,0.0,-999.0,72,-99.99,,,0.00,weatherlink.com 1.10,2013-11-16 03:35:00,
2013-11-15 19:48:00,49.8,42.0,29.76,SE,128,0.0,-999.0,74,-99.99,,,0.00,weatherlink.com 1.10,2013-11-16 03:48:00,
2013-11-15 20:03:00,49.2,42.0,29.76,SE,128,0.0,-999.0,75,-99.99,,,0.00,weatherlink.com 1.10,2013-11-16 04:03:00,
2013-11-15 20:18:00,48.8,42.0,29.77,SE,128,0.0,-999.0,77,-99.99,,,0.00,weatherlink.com 1.10,2013-11-16 04:18:00,
2013-11-15 20:34:00,48.3,41.0,29.76,SE,128,0.0,-999.0,76,-99.99,,,0.00,weatherlink.com 1.10,2013-11-16 04:34:00,
2013-11-15 20:48:00,48.0,41.0,29.76,SE,128,0.0,-999.0,78,-99.99,,,0.00,weatherlink.com 1.10,2013-11-16 04:48:00,
2013-11-15 21:04:00,48.6,42.0,29.77,SE,128,0.0,-999.0,78,-99.99,,,0.00,weatherlink.com 1.10,2013-11-16 05:04:00,
2013-11-15 21:18:00,48.9,42.0,29.77,SE,128,0.0,-999.0,76,-99.99,,,0.00,weatherlink.com 1.10,2013-11-16 05:18:00,
2013-11-15 21:34:00,48.5,42.0,29.77,SE,128,0.0,-999.0,78,-99.99,,,0.00,weatherlink.com 1.10,2013-11-16 05:34:00,
2013-11-15 21:48:00,48.2,42.0,29.76,SE,128,0.0,-999.0,80,-99.99,,,0.00,weatherlink.com 1.10,2013-11-16 05:48:00,
2013-11-15 22:03:00,47.7,42.0,29.76,SE,128,0.0,-999.0,80,-99.99,,,0.00,weatherlink.com 1.10,2013-11-16 06:03:00,
2013-11-15 22:18:00,47.4,42.0,29.76,ESE,116,0.0,-999.0,82,-99.99,,,0.00,weatherlink.com 1.10,2013-11-16 06:18:00,
2013-11-15 22:33:00,49.4,45.0,29.78,ESE,106,0.0,-999.0,86,-99.99,,,0.00,weatherlink.com 1.10,2013-11-16 06:33:00,
2013-11-15 22:48:00,49.9,46.0,29.76,ESE,122,0.0,-999.0,86,-99.99,,,0.00,weatherlink.com 1.10,2013-11-16 06:48:00,
2013-11-15 23:03:00,50.1,46.0,29.77,SE,127,0.0,-999.0,86,-99.99,,,0.00,weatherlink.com 1.10,2013-11-16 07:03:00,
2013-11-15 23:18:00,50.1,46.0,29.78,SSE,160,0.0,-999.0,86,-99.99,,,0.00,weatherlink.com 1.10,2013-11-16 07:18:00,
2013-11-15 23:33:00,50.2,46.0,29.77,SSE,160,0.0,-999.0,86,-99.99,,,0.00,weatherlink.com 1.10,2013-11-16 07:33:00,
2013-11-15 23:48:00,49.8,46.0,29.78,SSE,160,0.0,-999.0,86,-99.99,,,0.00,weatherlink.com 1.10,2013-11-16 07:48:00,